[[{"header":{"parameterUnit":"m.s-1","parameterCategory":2,"la1":30.2991,"la2":30.254,"lo1":-89.0895,"lo2":-89.0444,"dy":0.0017,"dx":0.0017,"nx":28,"ny":28,"refTime":"2024-03-20T09:00:00:Z","depth":"0","parameterNumber":2,"parameterNumberName":"U-component_of_CURRENTS"},"data":[0,0,0,0,0,0,0,0,0,0,0,0,0,0,0,0,0,0,0,0,0,0,0,0,0,0,0,0,0,0,0,0,0,0,0,0,0,0,0,0,0,0,0,0,0,0,0,0,0,0,0,0,0,0,0,0,0,0,0.1516,0.1516,0,0.1592,0.1593,0.1594,0.1617,0.1617,0.1616,0.1616,0.1764,0.1768,0.1772,0,0,0,0,0,0,0,0,0,0,0,0,0,0.1443,0.1444,0.1515,0.1516,0.1517,0.1592,0.1593,0.1594,0.1617,0.1617,0.1616,0.1616,0.1762,0.1767,0.1773,0,0,0,0,0,0,0,0,0,0,0,0,0,0.1493,0.1444,0.1515,0.1537,0.1539,0.1591,0.1593,0.1594,0.1617,0.1617,0.1616,0.1615,0.1761,0.1767,0.1774,0.1829,0,0,0.1794,0.1797,0,0,0,0,0,0,0,0,0.149,0.1496,0.1533,0.1535,0.1538,0.1593,0.1621,0.1676,0.1618,0.1589,0.1616,0.1615,0.1713,0.1724,0.174,0.1836,0.1842,0.1794,0.1798,0.1801,0.1803,0,0,0,0,0,0,0,0.1487,0.1493,0.1547,0.1534,0.1537,0.1561,0.1567,0.1632,0.1657,0.1592,0.1593,0.16,0.1715,0.1734,0.1744,0.1845,0.1794,0.18,0.1804,0.1807,0.1998,0.1999,0,0,0,0,0,0,0.1473,0.149,0.1545,0.1549,0.1511,0.1562,0.1569,0.1577,0.1655,0.1665,0.16,0.1601,0.1723,0.1736,0.175,0.1829,0.1801,0.1807,0.1811,0.1997,0.1998,0.1999,0,0,0,0,0,0,0.1471,0.1477,0.1541,0.152,0.153,0.1564,0.1573,0.1579,0.16,0.166,0.1672,0.1614,0.1723,0.174,0.1801,0.1834,0.181,0.1816,0.1995,0.1997,0.1998,0.1982,0,0,0,0,0,0,0.1469,0.1476,0.1483,0.1519,0.153,0.1582,0.1574,0.1581,0.1604,0.1605,0.1677,0.1689,0.1724,0.1791,0.1807,0.1843,0.1821,0.1994,0.1996,0.1998,0.1981,0.1983,0.1985,0,0,0,0,0,0.1466,0.1481,0.1483,0.1489,0.1536,0.1583,0.1592,0.1614,0.1606,0.1627,0.1659,0.1687,0.1816,0.1797,0.1816,0.1855,0.1993,0.1995,0.1998,0.1981,0.1983,0.1985,0,0,0,0,0,0,0.1453,0.1485,0.1488,0.1511,0.1546,0.1586,0.1609,0.1617,0.1658,0.1659,0.1702,0.1718,0.1784,0.1821,0.1799,0.1915,0.191,0.1917,0.1891,0.1893,0.1895,0.1886,0.1827,0,0,0,0,0,0.1451,0.1471,0.1505,0.1526,0.1543,0.1574,0.1595,0.1611,0.1648,0.1665,0.1708,0.1758,0.1812,0.185,0.1903,0.1972,0.2028,0.201,0.2011,0.2012,0.2018,0.2103,0.2113,0.2007,0.2007,0.2007,0,0,0.1449,0.1472,0.1482,0.1524,0.1553,0.1593,0.1586,0.1625,0.1656,0.1679,0.1735,0.1768,0.1829,0.1896,0.1931,0.1932,0.208,0.2016,0.2016,0.2022,0.2107,0.2117,0.2126,0.2009,0.2009,0.2008,0,0,0.1471,0.1479,0.1511,0.1543,0.1587,0.1609,0.1618,0.1662,0.168,0.1733,0.1753,0.1798,0.1886,0.193,0.1965,0.2013,0.208,0.2034,0.2047,0.2129,0.2138,0.2147,0.2263,0.2283,0.2041,0.2041,0.2041,0,0.1467,0.1513,0.1529,0.1573,0.16,0.1615,0.1658,0.1686,0.174,0.176,0.1753,0.1861,0.1905,0.1987,0.1993,0.202,0.2084,0.2031,0.2131,0.2141,0.215,0.2267,0.2288,0.2041,0.2041,0.2041,0.2041,0,0.1521,0.1558,0.1582,0.1637,0.1666,0.1708,0.174,0.1769,0.178,0.1804,0.187,0.1915,0.1982,0.1999,0.2011,0.2099,0.2132,0.2116,0.2122,0.2159,0.2281,0.2303,0.204,0.204,0.204,0.2041,0,0,0.151,0.1601,0.1611,0.1647,0.1703,0.1733,0.178,0.1831,0.1862,0.1898,0.1951,0.2011,0.202,0.2058,0.2083,0.2138,0.226,0.215,0.2154,0.226,0.2476,0.253,0.256,0.2257,0.226,0.2262,0.2546,0,0.1551,0.1642,0.1673,0.1747,0.1793,0.1815,0.1856,0.1895,0.1925,0.1979,0.2013,0.2073,0.205,0.2084,0.2136,0.223,0.2313,0.2187,0.2429,0.2438,0.2475,0.2585,0.2506,0.2753,0.2568,0.2572,0.2575,0,0.1599,0.1652,0.1736,0.1805,0.1825,0.1862,0.192,0.196,0.2023,0.2048,0.2098,0.2127,0.2224,0.2184,0.2378,0.2299,0.2391,0.2451,0.2464,0.2532,0.2532,0.2681,0.2801,0.2712,0.261,0.2607,0.2604,0,0.1603,0.1693,0.1759,0.1787,0.1865,0.1893,0.1925,0.198,0.2028,0.2098,0.2152,0.2236,0.2325,0.2416,0.2548,0.2475,0.2771,0.2695,0.2839,0.2846,0.2837,0.2837,0.2891,0.2842,0.2841,0.284,0.2839,0,0.1645,0.1696,0.1764,0.1806,0.1861,0.1901,0.1962,0.2002,0.2082,0.2145,0.2191,0.2285,0.2383,0.2549,0.262,0.2841,0.2854,0.2885,0.293,0.2833,0.283,0.2796,0.2712,0.2851,0.2849,0.2846,0.2845,0,0.1663,0.1713,0.1787,0.1859,0.1876,0.1914,0.1991,0.2039,0.2109,0.2205,0.2238,0.2391,0.2598,0.2734,0.294,0.2983,0.3081,0.3217,0.3119,0.3146,0.3132,0.305,0.3092,0.3006,0.3409,0.3412,0.3414,0,0.1708,0.1748,0.1815,0.1853,0.1892,0.1943,0.1981,0.2045,0.2098,0.2265,0.2325,0.2558,0.2721,0.3087,0.3204,0.3412,0.3247,0.3442,0.3265,0.3166,0.3109,0.2943,0.2851,0.327,0.3271,0.3272,0.3273,0,0.1803,0.1809,0.1871,0.1921,0.1966,0.1994,0.2051,0.2103,0.2177,0.229,0.249,0.2646,0.2965,0.3154,0.3413,0.3498,0.3262,0.3469,0.3383,0.3033,0.2842,0.2768,0.307,0.3282,0.3281,0.328,0.328,0.3279,0.1893,0.1931,0.1999,0.2028,0.2058,0.2074,0.2095,0.2165,0.228,0.2416,0.257,0.2764,0.3004,0.336,0.3443,0.3484,0.338,0.3385,0.3315,0.3174,0.3004,0.3353,0.359,0.359,0.3591,0.3592,0.3592,0,0.2046,0.2068,0.2108,0.2142,0.2143,0.2134,0.2166,0.2173,0.2287,0.2422,0.2595,0.2843,0.3049,0.3202,0.336,0.3321,0.3148,0.3239,0.2943,0.2873,0.3228,0.3131,0.3258,0.3259,0.3259,0.3259,0.3259,0.3259,0.2163,0.2219,0.2194,0.2229,0.2219,0.22,0.2203,0.2219,0.2279,0.2415,0.2521,0.2656,0.2887,0.3118,0.3153,0.3106,0.2849,0.2791,0.2733,0.2932,0.2937,0.2941,0.283,0.2892,0.2892,0.2279,0.2274,0.227]},{"header":{"parameterUnit":"m.s-1","parameterCategory":2,"la1":30.2991,"la2":30.254,"lo1":-89.0895,"lo2":-89.0444,"dy":0.0017,"dx":0.0017,"nx":28,"ny":28,"refTime":"2024-03-20T09:00:00:Z","depth":"0","parameterNumber":3,"parameterNumberName":"V-component_of_CURRENTS"},"data":[0,0,0,0,0,0,0,0,0,0,0,0,0,0,0,0,0,0,0,0,0,0,0,0,0,0,0,0,0,0,0,0,0,0,0,0,0,0,0,0,0,0,0,0,0,0,0,0,0,0,0,0,0,0,0,0,0,0,-0.0173,-0.0174,0,-0.0293,-0.0294,-0.0296,-0.0346,-0.0345,-0.0345,-0.0345,-0.0508,-0.0513,-0.0517,0,0,0,0,0,0,0,0,0,0,0,0,0,-0.0075,-0.0076,-0.0173,-0.0174,-0.0175,-0.0292,-0.0294,-0.0296,-0.0346,-0.0345,-0.0345,-0.0344,-0.0506,-0.0512,-0.0518,0,0,0,0,0,0,0,0,0,0,0,0,0,-0.015,-0.0077,-0.0172,-0.0213,-0.0217,-0.0292,-0.0294,-0.0297,-0.0346,-0.0345,-0.0345,-0.0344,-0.0505,-0.0512,-0.0519,-0.0576,0,0,-0.054,-0.0544,0,0,0,0,0,0,0,0,-0.0146,-0.0154,-0.0205,-0.021,-0.0215,-0.0302,-0.032,-0.0391,-0.0346,-0.03,-0.0345,-0.0344,-0.0442,-0.0454,-0.0481,-0.0584,-0.0591,-0.0541,-0.0545,-0.0549,-0.0551,0,0,0,0,0,0,0,-0.0141,-0.015,-0.0222,-0.0207,-0.0213,-0.0255,-0.0264,-0.0334,-0.0376,-0.0304,-0.0307,-0.0317,-0.0445,-0.0474,-0.0485,-0.0593,-0.0541,-0.0547,-0.0552,-0.0554,-0.0776,-0.0778,0,0,0,0,0,0,-0.0118,-0.0145,-0.0219,-0.0226,-0.0176,-0.0256,-0.0267,-0.0276,-0.0374,-0.0387,-0.0317,-0.0319,-0.0462,-0.0477,-0.0491,-0.0586,-0.0548,-0.0555,-0.0559,-0.0775,-0.0777,-0.0778,0,0,0,0,0,0,-0.0115,-0.0123,-0.0214,-0.0186,-0.02,-0.0258,-0.0269,-0.0279,-0.0308,-0.0384,-0.0398,-0.0335,-0.0462,-0.0481,-0.0564,-0.0592,-0.0558,-0.0565,-0.0773,-0.0775,-0.0778,-0.0763,0,0,0,0,0,0,-0.0112,-0.0121,-0.0125,-0.0184,-0.0201,-0.0263,-0.0269,-0.0282,-0.0314,-0.0317,-0.0404,-0.0418,-0.0463,-0.0553,-0.0571,-0.0601,-0.057,-0.0771,-0.0774,-0.0777,-0.0761,-0.0764,-0.0767,0,0,0,0,0,-0.0108,-0.0116,-0.0125,-0.0134,-0.0202,-0.0264,-0.0277,-0.0317,-0.0315,-0.0338,-0.0396,-0.0415,-0.0584,-0.056,-0.0581,-0.0614,-0.0769,-0.0773,-0.0777,-0.076,-0.0763,-0.0767,0,0,0,0,0,0,-0.0076,-0.0124,-0.0134,-0.0156,-0.0206,-0.0271,-0.0295,-0.0317,-0.038,-0.0383,-0.0443,-0.0463,-0.0546,-0.0584,-0.0556,-0.0687,-0.0678,-0.0686,-0.0658,-0.0662,-0.0665,-0.059,-0.0576,0,0,0,0,0,-0.0069,-0.0088,-0.0142,-0.0161,-0.0183,-0.0237,-0.0265,-0.0294,-0.0353,-0.0379,-0.0439,-0.0507,-0.0579,-0.062,-0.069,-0.0765,-0.0726,-0.0799,-0.0802,-0.0804,-0.0757,-0.0737,-0.0732,-0.079,-0.079,-0.079,0,0,-0.006,-0.009,-0.01,-0.0155,-0.0195,-0.0244,-0.0254,-0.03,-0.0341,-0.039,-0.0466,-0.0523,-0.0602,-0.0686,-0.0726,-0.0721,-0.0768,-0.0808,-0.0809,-0.0761,-0.074,-0.0734,-0.0728,-0.0793,-0.0792,-0.0792,0,0,-0.0064,-0.008,-0.0103,-0.0147,-0.0205,-0.0246,-0.0256,-0.0326,-0.0356,-0.0436,-0.0479,-0.0536,-0.0661,-0.0708,-0.075,-0.0809,-0.0784,-0.085,-0.0806,-0.0789,-0.0782,-0.0775,-0.0709,-0.0697,-0.0851,-0.0851,-0.0851,0,-0.005,-0.0087,-0.0121,-0.0163,-0.0194,-0.0244,-0.0282,-0.0333,-0.0422,-0.0429,-0.0459,-0.0581,-0.0662,-0.0723,-0.0754,-0.0812,-0.0774,-0.0786,-0.0786,-0.0779,-0.0772,-0.0706,-0.0693,-0.085,-0.085,-0.085,-0.085,0,-0.0081,-0.0112,-0.0132,-0.0197,-0.0237,-0.0279,-0.0344,-0.0379,-0.0415,-0.0449,-0.0503,-0.0594,-0.0641,-0.0705,-0.0757,-0.0766,-0.0744,-0.0789,-0.0762,-0.0764,-0.0696,-0.0682,-0.085,-0.085,-0.085,-0.085,0,0,-0.0041,-0.0133,-0.014,-0.0161,-0.0254,-0.0279,-0.0342,-0.0388,-0.0372,-0.0465,-0.044,-0.0589,-0.0581,-0.0624,-0.0688,-0.0692,-0.0645,-0.0717,-0.0716,-0.062,-0.0555,-0.0537,-0.052,-0.0687,-0.0685,-0.0683,-0.052,0,-0.0054,-0.0116,-0.0167,-0.022,-0.0252,-0.0302,-0.0336,-0.0376,-0.0402,-0.0392,-0.0453,-0.0468,-0.057,-0.0565,-0.0593,-0.062,-0.0609,-0.0681,-0.059,-0.0585,-0.0547,-0.0505,-0.0521,-0.0377,-0.0506,-0.0504,-0.0502,0,-0.0067,-0.0104,-0.0155,-0.0194,-0.0207,-0.0237,-0.0239,-0.0275,-0.028,-0.0283,-0.029,-0.0318,-0.0334,-0.0417,-0.0425,-0.0461,-0.0494,-0.0521,-0.0516,-0.0482,-0.0542,-0.0401,-0.0346,-0.0552,-0.048,-0.0482,-0.0483,0,-0.0008,-0.0085,-0.0113,-0.014,-0.0203,-0.0198,-0.0213,-0.0223,-0.0192,-0.0174,-0.0109,-0.0158,-0.0117,-0.0186,-0.0254,-0.0325,-0.0227,-0.0338,-0.0343,-0.0341,-0.0323,-0.0322,-0.0425,-0.0322,-0.0323,-0.0323,-0.0324,0,0.0003,-0.0011,-0.0075,-0.0089,-0.0064,-0.0125,-0.0068,-0.0078,-0.0032,0.0053,-0.0018,0.0084,-0.0054,-0.0031,-0.0148,-0.016,-0.0138,-0.0284,-0.0291,-0.0321,-0.0323,-0.0477,-0.0578,-0.0317,-0.0318,-0.032,-0.0321,0,0.0074,0.0012,0.0003,-0.0039,-0.0039,-0.0005,0.0039,0.0103,0.0128,0.0253,0.0282,0.0317,0.0357,0.0233,0.0176,0.0027,-0.0112,-0.0048,-0.0046,-0.0057,-0.0305,-0.0404,-0.0393,-0.0465,-0.0025,-0.0023,-0.0022,0,0.0111,0.0102,0.0073,0.0106,0.0095,0.0135,0.0184,0.019,0.0279,0.0416,0.0515,0.0595,0.0693,0.0638,0.039,0.0242,0.0024,0.0097,-0.0077,-0.0273,-0.0389,-0.0463,-0.0532,-0.0038,-0.0037,-0.0036,-0.0035,0,0.0214,0.0197,0.0199,0.0248,0.0297,0.0351,0.0427,0.0522,0.0567,0.0706,0.0932,0.1033,0.0959,0.0839,0.0587,0.0422,-0.0044,0.0109,-0.0106,-0.0393,-0.0461,-0.055,-0.0166,-0.0028,-0.0029,-0.0029,-0.003,-0.003,0.0332,0.037,0.0379,0.0429,0.049,0.0595,0.0678,0.0796,0.0978,0.1198,0.125,0.1423,0.1141,0.082,0.0579,0.0045,0.0046,-0.0167,-0.0255,-0.0299,-0.0426,0.0006,0.0121,0.0121,0.0121,0.0121,0.0121,0,0.0492,0.0516,0.0572,0.0645,0.0739,0.0715,0.0864,0.0973,0.1221,0.1417,0.1615,0.1558,0.1211,0.0765,0.0087,-0.0282,-0.045,-0.0494,-0.0652,-0.0698,-0.0323,-0.0391,-0.0368,-0.0367,-0.0367,-0.0367,-0.0367,-0.0367,0.0594,0.0673,0.0672,0.0852,0.0908,0.1037,0.1122,0.1301,0.1453,0.1735,0.1826,0.1861,0.1485,0.0324,-0.0525,-0.072,-0.0989,-0.0999,-0.1122,-0.0959,-0.0939,-0.092,-0.1014,-0.1121,-0.1122,-0.1493,-0.1497,-0.15]}],[{"header":{"parameterUnit":"m.s-1","parameterCategory":2,"la1":30.2991,"la2":30.254,"lo1":-89.0895,"lo2":-89.0444,"dy":0.0017,"dx":0.0017,"nx":28,"ny":28,"refTime":"2024-03-20T09:00:00:Z","depth":"2","parameterNumber":2,"parameterNumberName":"U-component_of_CURRENTS"},"data":[0,0,0,0,0,0,0,0,0,0,0,0,0,0,0,0,0,0,0,0,0,0,0,0,0,0,0,0,0,0,0,0,0,0,0,0,0,0,0,0,0,0,0,0,0,0,0,0,0,0,0,0,0,0,0,0,0,0,0.1382,0.1383,0,0.1424,0.1425,0.1425,0.1442,0.1442,0.1442,0.1442,0.1318,0.1315,0.1311,0,0,0,0,0,0,0,0,0,0,0,0,0,0.1302,0.1303,0.1382,0.1383,0.1384,0.1424,0.1425,0.1425,0.1442,0.1442,0.1442,0.1442,0.1319,0.1315,0.1311,0,0,0,0,0,0,0,0,0,0,0,0,0,0.1337,0.1304,0.1382,0.1399,0.1401,0.1424,0.1425,0.1425,0.1442,0.1442,0.1442,0.1442,0.132,0.1315,0.131,0.1275,0,0,0.1295,0.1292,0,0,0,0,0,0,0,0,0.1335,0.134,0.1396,0.1398,0.14,0.143,0.1351,0.1367,0.1442,0.1424,0.1442,0.1442,0.1341,0.1335,0.1341,0.1269,0.1264,0.1294,0.1291,0.1289,0.1287,0,0,0,0,0,0,0,0.1333,0.1338,0.1396,0.1396,0.1399,0.14,0.1405,0.1355,0.1376,0.1425,0.1427,0.1436,0.1341,0.1346,0.1338,0.1262,0.1294,0.129,0.1287,0.1285,0.1174,0.1175,0,0,0,0,0,0,0.1334,0.1336,0.1395,0.1398,0.137,0.1401,0.1407,0.1418,0.138,0.1377,0.1436,0.1436,0.1355,0.1344,0.1333,0.1298,0.1289,0.1284,0.1281,0.1174,0.1174,0.1175,0,0,0,0,0,0,0.1332,0.1339,0.1393,0.137,0.1377,0.1403,0.1415,0.1419,0.1436,0.139,0.1383,0.1451,0.1355,0.134,0.1291,0.1292,0.1282,0.1277,0.1174,0.1174,0.1175,0.122,0,0,0,0,0,0,0.1329,0.1338,0.1347,0.137,0.1378,0.1416,0.1416,0.142,0.1442,0.1444,0.14,0.1389,0.1354,0.1299,0.1286,0.1285,0.1273,0.1174,0.1174,0.1174,0.1218,0.1221,0.1224,0,0,0,0,0,0.1326,0.1344,0.1347,0.1354,0.139,0.1416,0.1421,0.1437,0.1443,0.1453,0.1416,0.1391,0.1292,0.1294,0.1279,0.1277,0.1174,0.1174,0.1174,0.1217,0.1221,0.1224,0,0,0,0,0,0,0.1314,0.1348,0.1352,0.1379,0.1398,0.142,0.1439,0.1445,0.143,0.143,0.1381,0.1366,0.1327,0.1295,0.1299,0.1248,0.1233,0.123,0.127,0.1274,0.1277,0.13,0.1269,0,0,0,0,0,0.1315,0.1338,0.1363,0.1384,0.1399,0.1419,0.1433,0.1445,0.1438,0.1435,0.1401,0.136,0.1316,0.129,0.1249,0.1211,0.1265,0.1205,0.1208,0.1211,0.122,0.1297,0.131,0.1176,0.1176,0.1176,0,0,0.1313,0.1338,0.1349,0.1383,0.1403,0.1414,0.1428,0.146,0.1454,0.1417,0.1394,0.1366,0.1308,0.1273,0.1253,0.1245,0.1289,0.1211,0.1214,0.1222,0.1299,0.1313,0.1325,0.1176,0.1176,0.1176,0,0,0.133,0.1349,0.1376,0.1388,0.1424,0.1429,0.144,0.1464,0.1464,0.1439,0.1413,0.1388,0.132,0.1288,0.1258,0.1252,0.1303,0.1245,0.1275,0.1349,0.1362,0.1373,0.1517,0.154,0.1246,0.1246,0.1246,0,0.1324,0.1356,0.1385,0.1406,0.141,0.1434,0.1444,0.1445,0.1443,0.1442,0.1434,0.138,0.1325,0.129,0.1287,0.1258,0.1345,0.1264,0.1357,0.1369,0.138,0.1524,0.155,0.1248,0.1248,0.1248,0.1248,0,0.1358,0.1371,0.1389,0.1412,0.142,0.1439,0.144,0.1449,0.1448,0.1448,0.1436,0.139,0.1372,0.1343,0.1302,0.1344,0.1402,0.1358,0.1356,0.1397,0.1546,0.1572,0.1252,0.1251,0.125,0.125,0,0,0.1365,0.1403,0.1406,0.1407,0.1423,0.1433,0.1428,0.1434,0.1456,0.1443,0.1478,0.1392,0.1422,0.1392,0.1366,0.1405,0.1556,0.1422,0.1425,0.1582,0.1807,0.1738,0.1761,0.1549,0.1552,0.1555,0.1902,0,0.1375,0.1403,0.1419,0.1418,0.1423,0.1431,0.1426,0.1432,0.1449,0.1491,0.1471,0.1497,0.1426,0.146,0.148,0.1542,0.1619,0.1471,0.1728,0.1737,0.1682,0.1784,0.1558,0.1837,0.1928,0.1932,0.1935,0,0.1403,0.1407,0.1419,0.1418,0.1426,0.1432,0.1453,0.1462,0.1511,0.1541,0.1579,0.1602,0.1661,0.1604,0.1754,0.1682,0.1754,0.1794,0.1808,0.1739,0.1713,0.1796,0.1882,0.1979,0.1976,0.1973,0.197,0,0.1393,0.1406,0.1412,0.1409,0.1417,0.143,0.1447,0.1484,0.1529,0.1626,0.1706,0.1756,0.1848,0.1915,0.1981,0.1915,0.2176,0.2096,0.2111,0.2112,0.1963,0.1941,0.2221,0.222,0.222,0.2219,0.2218,0,0.1394,0.1395,0.1416,0.1411,0.144,0.1442,0.1503,0.1539,0.1633,0.1714,0.1764,0.1864,0.1934,0.2066,0.2093,0.2209,0.2286,0.216,0.219,0.1975,0.1952,0.2075,0.2053,0.2232,0.2229,0.2226,0.2224,0,0.1395,0.1404,0.1417,0.1427,0.1444,0.1477,0.1567,0.1622,0.171,0.1841,0.1901,0.2037,0.2204,0.2272,0.2431,0.238,0.2472,0.2486,0.2261,0.2253,0.235,0.2327,0.258,0.258,0.258,0.2581,0.2581,0,0.1405,0.1407,0.1444,0.1475,0.1494,0.1547,0.1597,0.1673,0.1744,0.1927,0.2003,0.221,0.2314,0.2539,0.2493,0.2588,0.2585,0.2431,0.2197,0.238,0.2385,0.2361,0.2338,0.2076,0.2072,0.2069,0.2066,0,0.1395,0.142,0.1424,0.1497,0.1555,0.1612,0.1686,0.1746,0.1843,0.1964,0.2118,0.2228,0.2399,0.237,0.2461,0.245,0.2381,0.2365,0.2665,0.1971,0.1918,0.1917,0.191,0.2037,0.204,0.2042,0.2044,0.2045,0.139,0.1407,0.1425,0.1488,0.1567,0.1621,0.1628,0.1717,0.1812,0.1893,0.2063,0.2138,0.2186,0.2188,0.2175,0.2145,0.2271,0.2148,0.2154,0.2164,0.1994,0.1938,0.2037,0.204,0.2042,0.2044,0.2046,0,0.1334,0.1357,0.1413,0.1449,0.1488,0.1566,0.1633,0.1609,0.1656,0.1788,0.1863,0.1757,0.1784,0.1868,0.1762,0.1769,0.1699,0.1718,0.1596,0.1626,0.1653,0.1451,0.1355,0.1353,0.1351,0.135,0,0,0.1298,0.1293,0.1304,0.1312,0.137,0.1366,0.1374,0.1391,0.1444,0.1466,0.1497,0.161,0.1773,0.1506,0.1489,0.1417,0.1502,0.1364,0.1915,0.1799,0.1823,0.1901,0.1624,0,0,0,0,0]},{"header":{"parameterUnit":"m.s-1","parameterCategory":2,"la1":30.2991,"la2":30.254,"lo1":-89.0895,"lo2":-89.0444,"dy":0.0017,"dx":0.0017,"nx":28,"ny":28,"refTime":"2024-03-20T09:00:00:Z","depth":"2","parameterNumber":3,"parameterNumberName":"V-component_of_CURRENTS"},"data":[0,0,0,0,0,0,0,0,0,0,0,0,0,0,0,0,0,0,0,0,0,0,0,0,0,0,0,0,0,0,0,0,0,0,0,0,0,0,0,0,0,0,0,0,0,0,0,0,0,0,0,0,0,0,0,0,0,0,-0.0239,-0.0241,0,-0.0354,-0.0356,-0.0357,-0.0405,-0.0405,-0.0404,-0.0404,-0.0433,-0.0434,-0.0435,0,0,0,0,0,0,0,0,0,0,0,0,0,-0.0141,-0.0142,-0.0239,-0.0241,-0.0242,-0.0354,-0.0356,-0.0357,-0.0405,-0.0405,-0.0404,-0.0404,-0.0433,-0.0434,-0.0435,0,0,0,0,0,0,0,0,0,0,0,0,0,-0.0214,-0.0143,-0.0239,-0.0278,-0.0283,-0.0354,-0.0356,-0.0358,-0.0405,-0.0405,-0.0404,-0.0404,-0.0432,-0.0434,-0.0436,-0.0457,0,0,-0.0441,-0.0441,0,0,0,0,0,0,0,0,-0.021,-0.0218,-0.0271,-0.0276,-0.0281,-0.0363,-0.0332,-0.0386,-0.0405,-0.036,-0.0404,-0.0403,-0.0401,-0.0405,-0.0432,-0.0458,-0.0459,-0.0441,-0.0442,-0.0442,-0.0443,0,0,0,0,0,0,0,-0.0204,-0.0213,-0.0286,-0.0273,-0.0278,-0.0317,-0.0326,-0.0343,-0.0382,-0.0364,-0.0368,-0.0378,-0.0403,-0.043,-0.0432,-0.046,-0.0441,-0.0442,-0.0443,-0.0444,-0.05,-0.05,0,0,0,0,0,0,-0.0184,-0.0208,-0.0283,-0.029,-0.0241,-0.0319,-0.0329,-0.0339,-0.0384,-0.039,-0.0379,-0.038,-0.0427,-0.043,-0.0433,-0.0472,-0.0442,-0.0444,-0.0445,-0.0499,-0.05,-0.05,0,0,0,0,0,0,-0.0181,-0.0189,-0.0278,-0.025,-0.0264,-0.032,-0.0331,-0.0341,-0.0369,-0.0395,-0.04,-0.0396,-0.0427,-0.0431,-0.0458,-0.0472,-0.0445,-0.0446,-0.0499,-0.05,-0.05,-0.0541,0,0,0,0,0,0,-0.0178,-0.0188,-0.0192,-0.0249,-0.0265,-0.0326,-0.0332,-0.0344,-0.0376,-0.0379,-0.0412,-0.0414,-0.0427,-0.0455,-0.0459,-0.0474,-0.0448,-0.0498,-0.0499,-0.05,-0.0539,-0.0543,-0.0547,0,0,0,0,0,-0.0174,-0.0183,-0.0191,-0.0201,-0.0267,-0.0327,-0.0339,-0.0378,-0.0377,-0.0399,-0.0419,-0.0413,-0.0463,-0.0458,-0.0462,-0.0478,-0.0498,-0.0499,-0.05,-0.0537,-0.0542,-0.0546,0,0,0,0,0,0,-0.0144,-0.0191,-0.0201,-0.0223,-0.0271,-0.0334,-0.0358,-0.0378,-0.0415,-0.0412,-0.0428,-0.0433,-0.046,-0.0461,-0.0454,-0.0494,-0.0476,-0.0478,-0.0503,-0.0507,-0.0511,-0.0497,-0.0449,0,0,0,0,0,-0.0137,-0.0156,-0.0209,-0.0227,-0.025,-0.0301,-0.0329,-0.0357,-0.0395,-0.0412,-0.0436,-0.0453,-0.047,-0.0481,-0.0499,-0.0526,-0.0511,-0.0534,-0.0538,-0.0541,-0.0532,-0.0534,-0.0537,-0.0504,-0.0504,-0.0504,0,0,-0.0129,-0.0158,-0.0168,-0.0222,-0.0261,-0.0297,-0.0318,-0.0364,-0.0389,-0.0406,-0.0447,-0.0469,-0.0479,-0.0513,-0.0524,-0.0516,-0.0543,-0.0543,-0.0546,-0.0534,-0.0535,-0.0538,-0.0541,-0.0505,-0.0505,-0.0505,0,0,-0.0132,-0.015,-0.0172,-0.0209,-0.0266,-0.0298,-0.0308,-0.0375,-0.0399,-0.0447,-0.0457,-0.0485,-0.0526,-0.0538,-0.0546,-0.0575,-0.0562,-0.0582,-0.0595,-0.0597,-0.06,-0.0602,-0.0589,-0.059,-0.0585,-0.0586,-0.0586,0,-0.0119,-0.0151,-0.0189,-0.0223,-0.0245,-0.0293,-0.032,-0.0359,-0.0425,-0.0438,-0.046,-0.0514,-0.0534,-0.0551,-0.0576,-0.0583,-0.058,-0.0581,-0.0602,-0.0604,-0.0605,-0.0592,-0.0592,-0.0588,-0.0587,-0.0587,-0.0587,0,-0.0144,-0.0168,-0.0185,-0.0233,-0.0265,-0.0299,-0.0347,-0.038,-0.0413,-0.0448,-0.0487,-0.0531,-0.0553,-0.0577,-0.0596,-0.0615,-0.0607,-0.0607,-0.0592,-0.0611,-0.0596,-0.0595,-0.0591,-0.059,-0.0589,-0.0589,0,0,-0.0113,-0.0187,-0.0191,-0.0207,-0.0269,-0.0295,-0.033,-0.0373,-0.0373,-0.0456,-0.0457,-0.0536,-0.0556,-0.0564,-0.0589,-0.0615,-0.0641,-0.0628,-0.0627,-0.0615,-0.064,-0.0662,-0.0663,-0.0653,-0.0653,-0.0654,-0.0626,0,-0.0119,-0.0167,-0.0204,-0.0236,-0.0259,-0.0299,-0.0318,-0.0358,-0.039,-0.0405,-0.0458,-0.0466,-0.0548,-0.0547,-0.0598,-0.0608,-0.0641,-0.0647,-0.0622,-0.062,-0.0638,-0.0664,-0.061,-0.0584,-0.0625,-0.0625,-0.0625,0,-0.0127,-0.0155,-0.0191,-0.0221,-0.0232,-0.0254,-0.0268,-0.0292,-0.0319,-0.0337,-0.0375,-0.0399,-0.044,-0.0497,-0.0564,-0.0567,-0.0615,-0.0643,-0.0642,-0.0644,-0.0641,-0.057,-0.0581,-0.0624,-0.0624,-0.0624,-0.0624,0,-0.0083,-0.0137,-0.0158,-0.0175,-0.0223,-0.0232,-0.0246,-0.0272,-0.0249,-0.0269,-0.0233,-0.0317,-0.0293,-0.04,-0.0482,-0.0519,-0.0538,-0.0579,-0.0647,-0.0648,-0.0585,-0.0581,-0.0634,-0.0634,-0.0634,-0.0634,-0.0634,0,-0.0069,-0.0081,-0.0138,-0.0151,-0.014,-0.0188,-0.016,-0.0181,-0.016,-0.0098,-0.018,-0.0128,-0.0268,-0.0299,-0.0431,-0.0525,-0.0495,-0.0648,-0.0647,-0.0599,-0.0596,-0.0616,-0.0614,-0.0633,-0.0633,-0.0633,-0.0634,0,-0.0023,-0.0068,-0.0083,-0.0125,-0.0123,-0.0113,-0.0076,-0.0038,-0.0034,0.0058,0.0074,0.0052,-0.0002,-0.0145,-0.0262,-0.0406,-0.0519,-0.0561,-0.0492,-0.0487,-0.0646,-0.0646,-0.0648,-0.0648,-0.0649,-0.0649,-0.065,0,-0.0013,-0.0023,-0.0043,-0.0021,-0.0037,-0.0014,0.0027,0.0029,0.0089,0.0176,0.0241,0.0233,0.022,0.0032,-0.0199,-0.0414,-0.0471,-0.0515,-0.0602,-0.0651,-0.0649,-0.0649,-0.0649,-0.0525,-0.0524,-0.0524,-0.0523,0,0.0014,0.0005,0.0001,0.005,0.0086,0.0148,0.0201,0.0271,0.0308,0.0393,0.0489,0.0492,0.0326,0.0129,-0.016,-0.0314,-0.0492,-0.0514,-0.0546,-0.0547,-0.0538,-0.0536,-0.0539,-0.0518,-0.0519,-0.0519,-0.0519,-0.0519,0.0039,0.0062,0.0064,0.0119,0.0184,0.0284,0.0363,0.0441,0.0552,0.067,0.0649,0.0659,0.0428,0.006,-0.0171,-0.042,-0.0459,-0.0569,-0.0568,-0.0569,-0.0578,-0.0572,-0.0558,-0.0559,-0.056,-0.056,-0.0561,0,0.0058,0.0087,0.0142,0.0203,0.0305,0.0328,0.047,0.0577,0.0722,0.0781,0.0831,0.0631,0.0405,0.0149,-0.0209,-0.0459,-0.0469,-0.0529,-0.0487,-0.049,-0.0494,-0.0498,-0.0458,-0.0458,-0.0458,-0.0458,0,0,0.0061,0.0111,0.0143,0.0283,0.0363,0.0529,0.063,0.0789,0.0873,0.093,0.0909,0.081,0.0493,0.0245,-0.0062,-0.0246,-0.0312,-0.0283,-0.0341,-0.0258,-0.0258,-0.0495,-0.0503,0,0,0,0,0]}],[{"header":{"parameterUnit":"m.s-1","parameterCategory":2,"la1":30.2991,"la2":30.254,"lo1":-89.0895,"lo2":-89.0444,"dy":0.0017,"dx":0.0017,"nx":28,"ny":28,"refTime":"2024-03-20T09:00:00:Z","depth":"4","parameterNumber":2,"parameterNumberName":"U-component_of_CURRENTS"},"data":[0,0,0,0,0,0,0,0,0,0,0,0,0,0,0,0,0,0,0,0,0,0,0,0,0,0,0,0,0,0,0,0,0,0,0,0,0,0,0,0,0,0,0,0,0,0,0,0,0,0,0,0,0,0,0,0,0,0,0.0482,0.0482,0,0.0466,0.0465,0.0465,0.0484,0.0485,0.0486,0.0486,0.0493,0.0493,0.0492,0,0,0,0,0,0,0,0,0,0,0,0,0,0.0463,0.0463,0.0482,0.0482,0.0482,0.0466,0.0465,0.0465,0.0484,0.0485,0.0486,0.0487,0.0493,0.0493,0.0492,0,0,0,0,0,0,0,0,0,0,0,0,0,0.0461,0.0464,0.0482,0.049,0.049,0.0466,0.0465,0.0465,0.0484,0.0485,0.0486,0.0487,0.0494,0.0493,0.0492,0.0464,0,0,0.049,0.0489,0,0,0,0,0,0,0,0,0.0461,0.0462,0.0489,0.0489,0.049,0.0479,0.0461,0.0466,0.0484,0.0486,0.0486,0.0488,0.049,0.049,0.0483,0.0465,0.0465,0.049,0.0489,0.0489,0.0489,0,0,0,0,0,0,0,0.0461,0.0462,0.0475,0.0488,0.0489,0.0471,0.0472,0.0462,0.0482,0.0486,0.0487,0.0486,0.0491,0.0484,0.0483,0.0465,0.049,0.0489,0.0488,0.0488,0.0506,0.0507,0,0,0,0,0,0,0.0467,0.0462,0.0476,0.0475,0.0478,0.0471,0.0472,0.0481,0.0481,0.0483,0.0485,0.0487,0.0484,0.0484,0.0484,0.0535,0.0489,0.0488,0.0488,0.0505,0.0507,0.0508,0,0,0,0,0,0,0.0466,0.0468,0.0476,0.0468,0.0468,0.047,0.0479,0.048,0.0492,0.048,0.0482,0.0499,0.0485,0.0485,0.0498,0.0532,0.0488,0.0487,0.0504,0.0506,0.0507,0.0583,0,0,0,0,0,0,0.0466,0.0469,0.048,0.0469,0.0469,0.0475,0.0478,0.0479,0.0488,0.0491,0.0493,0.0493,0.0486,0.0499,0.0497,0.053,0.0486,0.0503,0.0505,0.0507,0.0579,0.0587,0.0593,0,0,0,0,0,0.0466,0.0467,0.0481,0.0483,0.0484,0.0475,0.0473,0.0477,0.0488,0.0493,0.0502,0.0494,0.0509,0.0499,0.0496,0.053,0.0502,0.0504,0.0507,0.0576,0.0585,0.0593,0,0,0,0,0,0,0.0466,0.0468,0.0484,0.0489,0.0492,0.0479,0.0479,0.0486,0.0494,0.0504,0.0499,0.05,0.0527,0.0511,0.05,0.054,0.0507,0.0509,0.0561,0.0569,0.0576,0.0618,0.0486,0,0,0,0,0,0.0472,0.0474,0.048,0.0485,0.0489,0.049,0.0489,0.0496,0.0498,0.0504,0.051,0.0517,0.0528,0.0536,0.0536,0.055,0.0555,0.0571,0.0579,0.0585,0.0617,0.0658,0.0673,0.0515,0.0515,0.0515,0,0,0.0471,0.0474,0.0476,0.0485,0.0487,0.0495,0.0493,0.0497,0.0511,0.0502,0.0528,0.0538,0.0536,0.0562,0.0573,0.0558,0.0625,0.0587,0.0593,0.0623,0.0662,0.0678,0.0692,0.0516,0.0516,0.0516,0,0,0.0461,0.0479,0.0478,0.0486,0.0497,0.0501,0.0509,0.0515,0.0529,0.0552,0.0558,0.0594,0.0597,0.0616,0.0623,0.0664,0.066,0.0663,0.0737,0.0777,0.0791,0.0803,0.0803,0.0815,0.0669,0.0669,0.0669,0,0.0466,0.0469,0.0476,0.0483,0.0492,0.051,0.0519,0.0532,0.0546,0.0573,0.0573,0.0633,0.0629,0.0681,0.0711,0.0684,0.0698,0.0706,0.0789,0.0801,0.0813,0.081,0.0822,0.0673,0.0672,0.0672,0.0672,0,0.0455,0.0468,0.0468,0.049,0.0503,0.0509,0.0534,0.0562,0.0591,0.062,0.0687,0.07,0.0754,0.075,0.0751,0.0836,0.0813,0.0792,0.0773,0.0834,0.0825,0.0837,0.0678,0.0677,0.0676,0.0675,0,0,0.0437,0.0457,0.0459,0.0477,0.0508,0.0516,0.0556,0.0602,0.0652,0.0695,0.0769,0.0814,0.0866,0.0879,0.0887,0.0926,0.1008,0.0915,0.0915,0.0924,0.1085,0.1007,0.1011,0.1014,0.1017,0.102,0.1036,0,0.043,0.0438,0.0455,0.0481,0.0492,0.0535,0.0573,0.0627,0.0684,0.0763,0.0821,0.0902,0.0899,0.0958,0.1,0.1016,0.1049,0.1005,0.1017,0.1017,0.0949,0.1026,0.103,0.1044,0.1047,0.1049,0.105,0,0.0412,0.0423,0.0438,0.0488,0.0501,0.0532,0.0618,0.0662,0.0777,0.0839,0.095,0.1005,0.111,0.1088,0.1167,0.1149,0.1145,0.1134,0.1133,0.1052,0.0962,0.0975,0.1071,0.1069,0.1068,0.1066,0.1065,0,0.0379,0.0413,0.0425,0.0439,0.0501,0.0538,0.0593,0.0695,0.076,0.0924,0.1003,0.1121,0.1205,0.1237,0.1242,0.1234,0.1287,0.1256,0.1166,0.1157,0.1187,0.1174,0.1309,0.1309,0.1309,0.1309,0.1309,0,0.0354,0.0365,0.0419,0.0426,0.0476,0.0539,0.0631,0.0704,0.0842,0.093,0.1067,0.1135,0.1259,0.1296,0.128,0.1262,0.1321,0.1209,0.1178,0.1211,0.12,0.1193,0.1179,0.1309,0.1309,0.1309,0.1309,0,0.0308,0.0334,0.0357,0.0426,0.0457,0.0504,0.0646,0.0715,0.086,0.098,0.1051,0.1197,0.1266,0.131,0.1352,0.1307,0.1284,0.1245,0.1267,0.123,0.1116,0.1106,0.1186,0.1183,0.1182,0.118,0.1179,0,0.0282,0.0282,0.0348,0.0373,0.0408,0.0502,0.0564,0.0716,0.0783,0.0972,0.1,0.1149,0.1225,0.1221,0.1266,0.1257,0.1226,0.1213,0.1202,0.1154,0.1115,0.1107,0.11,0.1176,0.1175,0.1175,0.1174,0,0.0228,0.025,0.0273,0.0327,0.0385,0.0459,0.0552,0.0603,0.077,0.0896,0.0978,0.1055,0.1121,0.1172,0.119,0.1156,0.1237,0.1194,0.1198,0.1187,0.1142,0.1104,0.1099,0.1168,0.1169,0.117,0.117,0,0.0191,0.0195,0.0228,0.0281,0.0341,0.0392,0.0462,0.0548,0.0646,0.084,0.0841,0.0975,0.1091,0.1112,0.1091,0.111,0.1102,0.1069,0.1079,0.1087,0.105,0.0979,0.0957,0,0,0,0,0,0.0153,0.0152,0.0184,0.0239,0.0298,0.0343,0.0433,0.0507,0.0647,0.0685,0.0782,0.0836,0.0921,0.0962,0.0965,0.1029,0.1083,0.1024,0.1043,0.1133,0.114,0.1108,0,0,0,0,0,0,0.0122,0.0135,0.0159,0.0195,0.0232,0.03,0.0357,0.0451,0.0478,0.062,0.0659,0.0782,0.0851,0.0918,0.0949,0.0964,0.0959,0.1101,0.1099,0.1129,0.1136,0.1141,0.1111,0,0,0,0,0]},{"header":{"parameterUnit":"m.s-1","parameterCategory":2,"la1":30.2991,"la2":30.254,"lo1":-89.0895,"lo2":-89.0444,"dy":0.0017,"dx":0.0017,"nx":28,"ny":28,"refTime":"2024-03-20T09:00:00:Z","depth":"4","parameterNumber":3,"parameterNumberName":"V-component_of_CURRENTS"},"data":[0,0,0,0,0,0,0,0,0,0,0,0,0,0,0,0,0,0,0,0,0,0,0,0,0,0,0,0,0,0,0,0,0,0,0,0,0,0,0,0,0,0,0,0,0,0,0,0,0,0,0,0,0,0,0,0,0,0,0.0217,0.0218,0,0.0246,0.0247,0.0247,0.0255,0.0255,0.0255,0.0254,0.0275,0.0276,0.0276,0,0,0,0,0,0,0,0,0,0,0,0,0,0.0186,0.0186,0.0217,0.0218,0.0218,0.0246,0.0247,0.0247,0.0255,0.0255,0.0255,0.0254,0.0275,0.0276,0.0276,0,0,0,0,0,0,0,0,0,0,0,0,0,0.0205,0.0186,0.0217,0.0226,0.0227,0.0246,0.0247,0.0247,0.0255,0.0255,0.0255,0.0254,0.0275,0.0275,0.0276,0.0286,0,0,0.028,0.028,0,0,0,0,0,0,0,0,0.0204,0.0206,0.0224,0.0225,0.0226,0.0247,0.0243,0.026,0.0255,0.0244,0.0254,0.0254,0.0265,0.0267,0.0272,0.0287,0.0288,0.028,0.028,0.0281,0.0281,0,0,0,0,0,0,0,0.0203,0.0205,0.0228,0.0225,0.0226,0.0234,0.0236,0.0246,0.0255,0.0245,0.0246,0.0249,0.0266,0.0271,0.0273,0.0289,0.028,0.028,0.0281,0.0281,0.0317,0.0318,0,0,0,0,0,0,0.0199,0.0204,0.0227,0.0229,0.0215,0.0235,0.0237,0.024,0.0255,0.0257,0.025,0.025,0.027,0.0272,0.0274,0.0316,0.0281,0.0282,0.0282,0.0317,0.0317,0.0318,0,0,0,0,0,0,0.0199,0.0201,0.0226,0.0218,0.0221,0.0235,0.0239,0.0241,0.0253,0.0259,0.0261,0.026,0.027,0.0272,0.0295,0.0316,0.0282,0.0283,0.0316,0.0317,0.0318,0.0382,0,0,0,0,0,0,0.0197,0.0201,0.0205,0.0217,0.0222,0.0249,0.0239,0.0242,0.0256,0.0257,0.0269,0.027,0.027,0.0293,0.0296,0.0317,0.0284,0.0316,0.0317,0.0317,0.038,0.0385,0.039,0,0,0,0,0,0.0196,0.0212,0.0205,0.0208,0.0226,0.025,0.0254,0.0262,0.0257,0.0271,0.0277,0.027,0.0299,0.0295,0.0298,0.0319,0.0316,0.0317,0.0317,0.0378,0.0384,0.039,0,0,0,0,0,0,0.0202,0.0214,0.0207,0.0224,0.0237,0.0252,0.0268,0.0267,0.0284,0.0284,0.0283,0.0286,0.0312,0.0302,0.0298,0.0328,0.0302,0.0304,0.0347,0.0353,0.0358,0.0343,0.0285,0,0,0,0,0,0.0202,0.0217,0.0226,0.024,0.0248,0.0256,0.0267,0.0271,0.0285,0.0292,0.0299,0.0304,0.0316,0.0324,0.0332,0.0354,0.0297,0.0364,0.0369,0.0373,0.0361,0.0282,0.0278,0.032,0.032,0.032,0,0,0.0209,0.0217,0.0225,0.0242,0.0253,0.0281,0.0263,0.0286,0.0311,0.0292,0.0329,0.0326,0.0325,0.0352,0.0361,0.0348,0.0335,0.0374,0.0378,0.0363,0.0282,0.0278,0.0274,0.0321,0.0321,0.0321,0,0,0.0239,0.0236,0.0262,0.0277,0.0296,0.0303,0.0311,0.0328,0.0337,0.0369,0.0358,0.036,0.039,0.0384,0.0387,0.0418,0.0364,0.0426,0.0443,0.0368,0.0364,0.0359,0.0294,0.0283,0.0428,0.0428,0.0428,0,0.0244,0.0276,0.0274,0.0306,0.0323,0.0317,0.0351,0.0364,0.0386,0.0385,0.0391,0.0396,0.0403,0.0409,0.0428,0.043,0.0377,0.0427,0.0373,0.0367,0.0361,0.0296,0.0283,0.0432,0.0431,0.0431,0.0431,0,0.0296,0.0323,0.0343,0.0378,0.0395,0.0424,0.0437,0.0448,0.0454,0.0455,0.046,0.0457,0.0448,0.046,0.0465,0.0432,0.0405,0.039,0.0358,0.0361,0.0292,0.0277,0.0436,0.0435,0.0434,0.0433,0,0,0.0303,0.0367,0.0373,0.0394,0.0433,0.0447,0.0486,0.0502,0.0499,0.0515,0.0503,0.053,0.0496,0.0494,0.0482,0.0431,0.0362,0.04,0.0395,0.0335,0.0194,0.0199,0.0182,0.0332,0.033,0.0328,0.0168,0,0.0343,0.0412,0.0434,0.0491,0.0523,0.0526,0.0553,0.056,0.0558,0.0542,0.0519,0.0511,0.052,0.0506,0.0459,0.0378,0.0324,0.0407,0.02,0.0194,0.0196,0.0166,0.032,0.0156,0.0153,0.015,0.0148,0,0.0386,0.0425,0.0493,0.0531,0.0542,0.0573,0.0578,0.0603,0.058,0.0573,0.0546,0.0512,0.046,0.0456,0.0312,0.0362,0.0285,0.0221,0.0213,0.0179,0.017,0.0148,0.0121,0.0123,0.0125,0.0127,0.0128,0,0.0386,0.0458,0.0509,0.0529,0.0576,0.0594,0.0614,0.0609,0.0613,0.0579,0.0551,0.0486,0.0434,0.0332,0.0227,0.0253,0.0045,0.0057,-0.0013,-0.0014,0.0002,0.0009,-0.0063,-0.0063,-0.0063,-0.0062,-0.0062,0,0.0416,0.0451,0.0512,0.0538,0.0571,0.0602,0.0623,0.0623,0.0615,0.0595,0.056,0.0504,0.0395,0.0275,0.019,0.0038,0.0008,-0.0029,-0.0063,0.0037,0.0049,-0.0008,0.0,-0.0068,-0.0067,-0.0066,-0.0065,0,0.0407,0.0457,0.0505,0.0561,0.0578,0.0597,0.0642,0.0643,0.0638,0.0602,0.0587,0.0488,0.0333,0.0218,0.0029,-0.0018,-0.0156,-0.02,-0.0091,-0.0113,-0.0154,-0.014,-0.0305,-0.0307,-0.0308,-0.0309,-0.031,0,0.0409,0.044,0.0508,0.0529,0.056,0.0603,0.0626,0.0655,0.0648,0.0583,0.0543,0.0403,0.0326,0.006,-0.0049,-0.0229,-0.0232,-0.0297,-0.0211,-0.0167,-0.0184,-0.0168,-0.0153,-0.0312,-0.0312,-0.0312,-0.0313,0,0.0396,0.0425,0.0462,0.0513,0.0549,0.0589,0.0619,0.0612,0.0617,0.0608,0.0492,0.0376,0.0196,0.0037,-0.0104,-0.0222,-0.025,-0.0309,-0.0306,-0.0226,-0.0177,-0.0188,-0.0172,-0.0317,-0.0316,-0.0316,-0.0315,0,0.037,0.039,0.0443,0.0483,0.0529,0.0553,0.0579,0.0567,0.0568,0.0506,0.0457,0.0303,0.0219,0.0034,-0.01,-0.0212,-0.0221,-0.0224,-0.0226,-0.0223,-0.0129,-0.0049,-0.02,0,0,0,0,0,0.0342,0.037,0.0406,0.0455,0.0502,0.0533,0.0558,0.0577,0.0572,0.0494,0.0487,0.0331,0.0137,0.0039,-0.0075,-0.0121,-0.0244,-0.0257,-0.0249,-0.0339,-0.0334,-0.0234,0,0,0,0,0,0,0.0322,0.036,0.0395,0.043,0.0457,0.0507,0.0525,0.0524,0.0481,0.0459,0.0347,0.0322,0.0119,0.0201,-0.0074,-0.0109,-0.0114,-0.0343,-0.0345,-0.0341,-0.0337,-0.0333,-0.0229,0,0,0,0,0]}]]